| time (UTC) | temp C | wind direction | speed KPH | gust KPH | rain 1hr cm | rain 24hr cm | rain mn cm | humidity % | barometer mb |
| 20260902123003 | 14 | 154 | 1.6 | 6.4 | 0.00 | 0.00 | 0.00 | 82 | 1016.4 |
| 20260902122524 | 13 | 155 | 1.6 | 6.4 | 0.00 | 0.00 | 0.00 | 82 | 1016.4 |
| 20260902122002 | 13 | 162 | 1.6 | 6.4 | 0.00 | 0.00 | 0.00 | 83 | 1016.4 |
| 20260902121502 | 13 | 170 | 1.6 | 8.0 | 0.00 | 0.00 | 0.00 | 83 | 1016.4 |
| 20260902121003 | 13 | 162 | 1.6 | 8.0 | 0.00 | 0.00 | 0.00 | 84 | 1016.4 |
| 20260902120502 | 13 | 150 | 1.6 | 8.0 | 0.00 | 0.00 | 0.00 | 85 | 1016.4 |
| 20260902120003 | 13 | 140 | 1.6 | 11.3 | 0.00 | 0.00 | 0.00 | 85 | 1016.4 |
| 20260902115503 | 13 | 142 | 1.6 | 11.3 | 0.00 | 0.00 | 0.00 | 85 | 1016.4 |
| 20260902115003 | 13 | 147 | 1.6 | 6.4 | 0.00 | 0.00 | 0.00 | 85 | 1016.4 |
| 20260902114502 | 13 | 149 | 1.6 | 6.4 | 0.00 | 0.00 | 0.00 | 86 | 1016.4 |
| 20260902114002 | 13 | 149 | 1.6 | 6.4 | 0.00 | 0.00 | 0.00 | 86 | 1016.4 |
| 20260902113503 | 13 | 150 | 1.6 | 4.8 | 0.00 | 0.00 | 0.00 | 86 | 1016.4 |
| 20260902113003 | 13 | 148 | 1.6 | 6.4 | 0.00 | 0.00 | 0.00 | 86 | 1016.4 |
| 20260902112502 | 13 | 146 | 1.6 | 6.4 | 0.00 | 0.00 | 0.00 | 86 | 1016.4 |
| 20260902112002 | 13 | 143 | 0.0 | 4.8 | 0.00 | 0.00 | 0.00 | 87 | 1016.4 |
| 20260902111503 | 13 | 144 | 0.0 | 4.8 | 0.00 | 0.00 | 0.00 | 86 | 1016.4 |
| 20260902111002 | 13 | 144 | 0.0 | 4.8 | 0.00 | 0.00 | 0.00 | 87 | 1016.4 |
| 20260902110502 | 13 | 144 | 0.0 | 3.2 | 0.00 | 0.00 | 0.00 | 87 | 1016.4 |
| 20260902110003 | 13 | 144 | 0.0 | 1.6 | 0.00 | 0.00 | 0.00 | 87 | 1014.4 |
| 20260902105503 | 13 | 146 | 0.0 | 4.8 | 0.00 | 0.00 | 0.00 | 87 | 1014.4 |
| 20260902105002 | 13 | 150 | 0.0 | 4.8 | 0.00 | 0.00 | 0.00 | 87 | 1014.4 |
| 20260902104524 | 13 | 157 | 0.0 | 3.2 | 0.00 | 0.00 | 0.00 | 87 | 1014.4 |
| 20260902104002 | 13 | 170 | 0.0 | 4.8 | 0.00 | 0.00 | 0.00 | 87 | 1014.4 |
| 20260902103503 | 13 | 178 | 0.0 | 4.8 | 0.00 | 0.00 | 0.00 | 88 | 1014.4 |
| 20260902103002 | 13 | 185 | 0.0 | 1.6 | 0.00 | 0.00 | 0.00 | 88 | 1014.4 |
| 20260902102502 | 13 | 187 | 0.0 | 1.6 | 0.00 | 0.00 | 0.00 | 88 | 1014.4 |
| 20260902102002 | 13 | 189 | 0.0 | 1.6 | 0.00 | 0.00 | 0.00 | 88 | 1014.4 |
| 20260902101503 | 13 | 197 | 0.0 | 3.2 | 0.00 | 0.00 | 0.00 | 88 | 1014.4 |
| 20260902101003 | 13 | 204 | 0.0 | 3.2 | 0.00 | 0.00 | 0.00 | 88 | 1014.4 |
| 20260902100502 | 13 | 211 | 0.0 | 1.6 | 0.00 | 0.00 | 0.00 | 89 | 1014.4 |
| 20260902100024 | 13 | 211 | 0.0 | 1.6 | 0.00 | 0.00 | 0.00 | 89 | 1014.4 |
| 20260902095503 | 13 | 211 | 0.0 | 1.6 | 0.00 | 0.00 | 0.00 | 89 | 1014.4 |
| 20260902095023 | 13 | 0 | 0.0 | 0.0 | 0.00 | 0.00 | 0.00 | 89 | 1014.4 |
| 20260902094502 | 13 | 0 | 0.0 | 0.0 | 0.00 | 0.00 | 0.00 | 89 | 1014.4 |
| 20260902094023 | 13 | 0 | 0.0 | 0.0 | 0.00 | 0.00 | 0.00 | 89 | 1014.4 |
| 20260902093502 | 13 | 0 | 0.0 | 0.0 | 0.00 | 0.00 | 0.00 | 89 | 1014.4 |
| 20260902093002 | 13 | 0 | 0.0 | 0.0 | 0.00 | 0.00 | 0.00 | 89 | 1014.4 |
| 20260902092503 | 13 | 0 | 0.0 | 0.0 | 0.00 | 0.00 | 0.00 | 89 | 1014.4 |
| 20260902092023 | 13 | 0 | 0.0 | 0.0 | 0.00 | 0.00 | 0.00 | 89 | 1014.4 |
| 20260902091503 | 13 | 0 | 0.0 | 0.0 | 0.00 | 0.00 | 0.00 | 89 | 1014.4 |
| 20260902091003 | 13 | 213 | 0.0 | 1.6 | 0.00 | 0.00 | 0.00 | 89 | 1014.4 |
| 20260902090503 | 13 | 213 | 0.0 | 1.6 | 0.00 | 0.00 | 0.00 | 89 | 1014.4 |
| 20260902090003 | 13 | 213 | 0.0 | 1.6 | 0.00 | 0.00 | 0.00 | 89 | 1014.4 |
| 20260902085503 | 13 | 213 | 0.0 | 1.6 | 0.00 | 0.00 | 0.00 | 89 | 1014.4 |
| 20260902085002 | 13 | 0 | 0.0 | 0.0 | 0.00 | 0.00 | 0.00 | 89 | 1014.4 |
| 20260902084503 | 13 | 0 | 0.0 | 0.0 | 0.00 | 0.00 | 0.00 | 89 | 1014.4 |
| 20260902084003 | 13 | 0 | 0.0 | 0.0 | 0.00 | 0.00 | 0.00 | 89 | 1014.4 |
| 20260902083523 | 13 | 213 | 0.0 | 1.6 | 0.00 | 0.00 | 0.00 | 89 | 1014.4 |
| 20260902083003 | 13 | 213 | 0.0 | 1.6 | 0.00 | 0.00 | 0.00 | 89 | 1014.4 |
| 20260902082502 | 13 | 0 | 0.0 | 0.0 | 0.00 | 0.00 | 0.00 | 89 | 1014.4 |
| 20260902082002 | 13 | 212 | 0.0 | 1.6 | 0.00 | 0.00 | 0.00 | 89 | 1014.4 |
| 20260902081503 | 13 | 205 | 0.0 | 3.2 | 0.00 | 0.00 | 0.00 | 90 | 1014.4 |
| 20260902081002 | 13 | 189 | 0.0 | 3.2 | 0.00 | 0.00 | 0.00 | 90 | 1014.4 |
| 20260902080502 | 13 | 170 | 0.0 | 3.2 | 0.00 | 0.00 | 0.00 | 90 | 1014.4 |
| 20260902080024 | 13 | 156 | 0.0 | 1.6 | 0.00 | 0.00 | 0.00 | 90 | 1014.4 |
| 20260902075503 | 13 | 156 | 0.0 | 3.2 | 0.00 | 0.00 | 0.00 | 89 | 1014.4 |
| 20260902075003 | 13 | 159 | 0.0 | 4.8 | 0.00 | 0.00 | 0.00 | 89 | 1014.4 |
| 20260902074524 | 13 | 177 | 0.0 | 4.8 | 0.00 | 0.00 | 0.00 | 89 | 1014.4 |
| 20260902074024 | 13 | 194 | 0.0 | 3.2 | 0.00 | 0.00 | 0.00 | 89 | 1014.4 |
| 20260902073503 | 13 | 195 | 0.0 | 3.2 | 0.00 | 0.00 | 0.00 | 89 | 1014.4 |
| 20260902073003 | 13 | 195 | 1.6 | 4.8 | 0.00 | 0.00 | 0.00 | 89 | 1014.4 |
| 20260902072502 | 13 | 197 | 1.6 | 4.8 | 0.00 | 0.00 | 0.00 | 89 | 1014.4 |
| 20260902072003 | 13 | 197 | 0.0 | 3.2 | 0.00 | 0.00 | 0.00 | 89 | 1014.4 |
| 20260902071502 | 13 | 198 | 0.0 | 1.6 | 0.00 | 0.00 | 0.00 | 89 | 1014.4 |
| 20260902071003 | 13 | 198 | 0.0 | 1.6 | 0.00 | 0.00 | 0.00 | 88 | 1014.4 |
| 20260902070524 | 13 | 198 | 0.0 | 1.6 | 0.00 | 0.00 | 0.00 | 88 | 1014.4 |
| 20260902070007 | 14 | 0 | 0.0 | 0.0 | 0.00 | 0.00 | 0.00 | 88 | 1014.4 |
| 20260902065502 | 14 | 0 | 0.0 | 0.0 | 0.00 | 0.00 | 0.00 | 88 | 1014.4 |
| 20260902065002 | 14 | 0 | 0.0 | 0.0 | 0.00 | 0.00 | 0.00 | 88 | 1014.4 |
| 20260902064503 | 14 | 0 | 0.0 | 0.0 | 0.00 | 0.00 | 0.00 | 88 | 1014.4 |
| 20260902064002 | 14 | 0 | 0.0 | 0.0 | 0.00 | 0.00 | 0.00 | 88 | 1014.4 |
| 20260902063503 | 14 | 0 | 0.0 | 0.0 | 0.00 | 0.00 | 0.00 | 88 | 1014.4 |
| 20260902063024 | 14 | 0 | 0.0 | 0.0 | 0.00 | 0.00 | 0.00 | 88 | 1014.4 |
| 20260902062502 | 14 | 198 | 0.0 | 1.6 | 0.00 | 0.00 | 0.00 | 88 | 1014.4 |
| 20260902062002 | 14 | 198 | 0.0 | 1.6 | 0.00 | 0.00 | 0.00 | 87 | 1014.4 |
| 20260902061502 | 14 | 0 | 0.0 | 0.0 | 0.00 | 0.00 | 0.00 | 87 | 1014.4 |
| 20260902061024 | 14 | 198 | 0.0 | 1.6 | 0.00 | 0.00 | 0.00 | 87 | 1014.4 |
| 20260902060503 | 14 | 198 | 0.0 | 3.2 | 0.00 | 0.00 | 0.00 | 87 | 1014.4 |
| 20260902060003 | 14 | 198 | 0.0 | 3.2 | 0.00 | 0.00 | 0.00 | 87 | 1014.4 |
| 20260902055503 | 14 | 0 | 0.0 | 0.0 | 0.00 | 0.00 | 0.00 | 87 | 1014.4 |
| 20260902055003 | 14 | 200 | 1.6 | 4.8 | 0.00 | 0.00 | 0.00 | 87 | 1014.4 |
| 20260902054524 | 14 | 201 | 1.6 | 4.8 | 0.00 | 0.00 | 0.00 | 87 | 1014.4 |
| 20260902054003 | 14 | 214 | 1.6 | 4.8 | 0.00 | 0.00 | 0.00 | 86 | 1014.4 |
| 20260902053503 | 14 | 222 | 1.6 | 4.8 | 0.00 | 0.00 | 0.00 | 86 | 1014.4 |
| 20260902053003 | 15 | 246 | 0.0 | 4.8 | 0.00 | 0.00 | 0.00 | 86 | 1014.4 |
| 20260902052503 | 15 | 251 | 0.0 | 3.2 | 0.00 | 0.00 | 0.00 | 86 | 1014.4 |
| 20260902052003 | 15 | 251 | 0.0 | 3.2 | 0.00 | 0.00 | 0.00 | 86 | 1014.4 |
| 20260902051503 | 15 | 252 | 0.0 | 6.4 | 0.00 | 0.00 | 0.00 | 86 | 1014.4 |
| 20260902051003 | 15 | 252 | 0.0 | 6.4 | 0.00 | 0.00 | 0.00 | 85 | 1014.4 |
| 20260902050502 | 15 | 250 | 0.0 | 1.6 | 0.00 | 0.00 | 0.00 | 85 | 1014.4 |
| 20260902050004 | 15 | 250 | 0.0 | 1.6 | 0.00 | 0.00 | 0.00 | 85 | 1014.4 |
| 20260902045503 | 15 | 250 | 0.0 | 1.6 | 0.00 | 0.00 | 0.00 | 85 | 1014.4 |
| 20260902045003 | 15 | 250 | 0.0 | 1.6 | 0.00 | 0.00 | 0.00 | 85 | 1014.4 |
| 20260902044503 | 15 | 250 | 0.0 | 1.6 | 0.00 | 0.00 | 0.00 | 85 | 1014.4 |
| 20260902044002 | 15 | 251 | 0.0 | 1.6 | 0.00 | 0.00 | 0.00 | 85 | 1014.4 |
| 20260902043503 | 15 | 254 | 0.0 | 3.2 | 0.00 | 0.00 | 0.00 | 85 | 1014.4 |
| 20260902043024 | 15 | 255 | 0.0 | 3.2 | 0.00 | 0.00 | 0.00 | 84 | 1014.4 |
| 20260902042524 | 15 | 255 | 0.0 | 1.6 | 0.00 | 0.00 | 0.00 | 85 | 1014.4 |
| 20260902042003 | 15 | 255 | 0.0 | 1.6 | 0.00 | 0.00 | 0.00 | 84 | 1014.4 |
| 20260902041524 | 15 | 255 | 1.6 | 4.8 | 0.00 | 0.00 | 0.00 | 84 | 1014.4 |
| 20260902041024 | 15 | 253 | 3.2 | 8.0 | 0.00 | 0.00 | 0.00 | 84 | 1014.4 |
| 20260902040503 | 15 | 249 | 3.2 | 8.0 | 0.00 | 0.00 | 0.00 | 84 | 1014.4 |
| 20260902040003 | 15 | 246 | 3.2 | 6.4 | 0.00 | 0.00 | 0.00 | 84 | 1014.4 |
| 20260902035503 | 15 | 249 | 3.2 | 11.3 | 0.00 | 0.00 | 0.00 | 83 | 1014.4 |
| 20260902035024 | 15 | 249 | 3.2 | 11.3 | 0.00 | 0.00 | 0.00 | 83 | 1014.4 |
| 20260902034502 | 15 | 245 | 3.2 | 8.0 | 0.00 | 0.00 | 0.00 | 82 | 1014.4 |
| 20260902034003 | 15 | 249 | 3.2 | 12.9 | 0.00 | 0.00 | 0.00 | 82 | 1014.4 |
| 20260902033503 | 15 | 259 | 3.2 | 12.9 | 0.00 | 0.00 | 0.00 | 82 | 1014.4 |
| 20260902033003 | 15 | 254 | 3.2 | 11.3 | 0.00 | 0.00 | 0.00 | 81 | 1014.4 |
| 20260902032503 | 15 | 249 | 3.2 | 11.3 | 0.00 | 0.00 | 0.00 | 81 | 1014.4 |
| 20260902032003 | 15 | 249 | 4.8 | 11.3 | 0.00 | 0.00 | 0.00 | 80 | 1014.4 |
| 20260902031503 | 15 | 251 | 4.8 | 11.3 | 0.00 | 0.00 | 0.00 | 80 | 1014.4 |
| 20260902031003 | 15 | 250 | 4.8 | 14.5 | 0.00 | 0.00 | 0.00 | 79 | 1014.4 |
| 20260902030503 | 15 | 253 | 4.8 | 14.5 | 0.00 | 0.00 | 0.00 | 79 | 1014.4 |
| 20260902030003 | 15 | 261 | 4.8 | 12.9 | 0.00 | 0.00 | 0.00 | 78 | 1014.4 |
| 20260902025503 | 15 | 259 | 6.4 | 16.1 | 0.00 | 0.00 | 0.00 | 78 | 1014.4 |
| 20260902025024 | 16 | 256 | 6.4 | 16.1 | 0.00 | 0.00 | 0.00 | 77 | 1014.4 |
| 20260902024503 | 16 | 255 | 6.4 | 14.5 | 0.00 | 0.00 | 0.00 | 76 | 1014.4 |
| 20260902024024 | 16 | 258 | 6.4 | 14.5 | 0.00 | 0.00 | 0.00 | 75 | 1014.4 |
| 20260902023503 | 16 | 266 | 4.8 | 14.5 | 0.00 | 0.00 | 0.00 | 74 | 1014.4 |
| 20260902023003 | 16 | 266 | 3.2 | 11.3 | 0.00 | 0.00 | 0.00 | 73 | 1014.4 |
| 20260902022503 | 16 | 261 | 3.2 | 12.9 | 0.00 | 0.00 | 0.00 | 72 | 1014.4 |
| 20260902022003 | 16 | 259 | 4.8 | 19.3 | 0.00 | 0.00 | 0.00 | 72 | 1014.4 |
| 20260902021503 | 16 | 261 | 6.4 | 19.3 | 0.00 | 0.00 | 0.00 | 71 | 1014.4 |
| 20260902021024 | 16 | 264 | 4.8 | 17.7 | 0.00 | 0.00 | 0.00 | 71 | 1014.4 |
| 20260902020503 | 16 | 256 | 6.4 | 16.1 | 0.00 | 0.00 | 0.00 | 70 | 1014.4 |
| 20260902020003 | 17 | 256 | 6.4 | 16.1 | 0.00 | 0.00 | 0.00 | 70 | 1014.4 |
| 20260902015503 | 17 | 261 | 4.8 | 14.5 | 0.00 | 0.00 | 0.00 | 69 | 1014.4 |
| 20260902015003 | 17 | 250 | 4.8 | 16.1 | 0.00 | 0.00 | 0.00 | 69 | 1014.4 |
| 20260902014503 | 17 | 254 | 6.4 | 16.1 | 0.00 | 0.00 | 0.00 | 69 | 1014.4 |
| 20260902014003 | 17 | 268 | 6.4 | 16.1 | 0.00 | 0.00 | 0.00 | 68 | 1014.4 |
| 20260902013503 | 17 | 262 | 6.4 | 16.1 | 0.00 | 0.00 | 0.00 | 67 | 1014.4 |
| 20260902013003 | 18 | 256 | 6.4 | 17.7 | 0.00 | 0.00 | 0.00 | 67 | 1014.4 |
| 20260902012524 | 18 | 258 | 6.4 | 17.7 | 0.00 | 0.00 | 0.00 | 66 | 1014.4 |
| 20260902012003 | 18 | 266 | 6.4 | 16.1 | 0.00 | 0.00 | 0.00 | 65 | 1014.4 |
| 20260902011503 | 18 | 269 | 4.8 | 14.5 | 0.00 | 0.00 | 0.00 | 65 | 1014.4 |
| 20260902011003 | 18 | 273 | 6.4 | 19.3 | 0.00 | 0.00 | 0.00 | 65 | 1014.4 |
| 20260902010503 | 18 | 271 | 4.8 | 19.3 | 0.00 | 0.00 | 0.00 | 64 | 1014.4 |
| 20260902010003 | 18 | 265 | 4.8 | 14.5 | 0.00 | 0.00 | 0.00 | 63 | 1014.4 |
| 20260902005503 | 19 | 279 | 4.8 | 14.5 | 0.00 | 0.00 | 0.00 | 63 | 1014.4 |
| 20260902005003 | 19 | 290 | 4.8 | 17.7 | 0.00 | 0.00 | 0.00 | 62 | 1014.4 |
| 20260902004503 | 19 | 272 | 4.8 | 17.7 | 0.00 | 0.00 | 0.00 | 63 | 1014.4 |
| 20260902004003 | 19 | 267 | 6.4 | 16.1 | 0.00 | 0.00 | 0.00 | 63 | 1014.4 |
| 20260902003503 | 19 | 261 | 6.4 | 14.5 | 0.00 | 0.00 | 0.00 | 63 | 1014.4 |
| 20260902003003 | 19 | 260 | 8.0 | 19.3 | 0.00 | 0.00 | 0.00 | 62 | 1014.4 |
| 20260902002503 | 20 | 269 | 4.8 | 19.3 | 0.00 | 0.00 | 0.00 | 60 | 1014.4 |
| 20260902002003 | 20 | 289 | 3.2 | 17.7 | 0.00 | 0.00 | 0.00 | 60 | 1014.4 |
| 20260902001503 | 20 | 290 | 4.8 | 17.7 | 0.00 | 0.00 | 0.00 | 60 | 1014.4 |
| 20260902001024 | 20 | 279 | 4.8 | 17.7 | 0.00 | 0.00 | 0.00 | 59 | 1014.4 |
| 20260902000524 | 20 | 273 | 4.8 | 19.3 | 0.00 | 0.00 | 0.00 | 61 | 1014.4 |
| 20260902000003 | 20 | 266 | 6.4 | 19.3 | 0.00 | 0.00 | 0.00 | 62 | 1014.4 |
| 20260901235503 | 20 | 255 | 4.8 | 16.1 | 0.00 | 0.00 | 0.00 | 62 | 1014.4 |
| 20260901235003 | 20 | 265 | 4.8 | 12.9 | 0.00 | 0.00 | 0.00 | 62 | 1014.4 |
| 20260901234524 | 20 | 265 | 6.4 | 20.9 | 0.00 | 0.00 | 0.00 | 62 | 1014.4 |
| 20260901234003 | 20 | 267 | 6.4 | 20.9 | 0.00 | 0.00 | 0.00 | 61 | 1014.4 |
| 20260901233503 | 20 | 267 | 4.8 | 17.7 | 0.00 | 0.00 | 0.00 | 61 | 1014.4 |
| 20260901233003 | 20 | 263 | 6.4 | 22.5 | 0.00 | 0.00 | 0.00 | 61 | 1014.4 |
| 20260901232503 | 20 | 260 | 6.4 | 22.5 | 0.00 | 0.00 | 0.00 | 58 | 1014.4 |
| 20260901232003 | 20 | 271 | 6.4 | 17.7 | 0.00 | 0.00 | 0.00 | 57 | 1014.4 |
| 20260901231503 | 20 | 286 | 4.8 | 14.5 | 0.00 | 0.00 | 0.00 | 57 | 1014.4 |
| 20260901231003 | 20 | 267 | 4.8 | 17.7 | 0.00 | 0.00 | 0.00 | 56 | 1014.4 |
| 20260901230503 | 20 | 260 | 4.8 | 20.9 | 0.00 | 0.00 | 0.00 | 57 | 1014.4 |
| 20260901230003 | 20 | 281 | 4.8 | 20.9 | 0.00 | 0.00 | 0.00 | 56 | 1014.4 |
| 20260901225503 | 21 | 288 | 4.8 | 16.1 | 0.00 | 0.00 | 0.00 | 55 | 1014.4 |
| 20260901225003 | 21 | 278 | 4.8 | 17.7 | 0.00 | 0.00 | 0.00 | 55 | 1014.4 |
| 20260901224505 | 21 | 261 | 4.8 | 17.7 | 0.00 | 0.00 | 0.00 | 55 | 1014.4 |
| 20260901224003 | 21 | 268 | 4.8 | 14.5 | 0.00 | 0.00 | 0.00 | 55 | 1014.4 |
| 20260901223524 | 21 | 297 | 4.8 | 14.5 | 0.00 | 0.00 | 0.00 | 56 | 1014.4 |
| 20260901223003 | 21 | 286 | 4.8 | 19.3 | 0.00 | 0.00 | 0.00 | 56 | 1014.4 |
| 20260901222503 | 21 | 288 | 4.8 | 19.3 | 0.00 | 0.00 | 0.00 | 56 | 1014.4 |
| 20260901222003 | 21 | 279 | 4.8 | 20.9 | 0.00 | 0.00 | 0.00 | 56 | 1014.4 |
| 20260901221503 | 21 | 272 | 4.8 | 20.9 | 0.00 | 0.00 | 0.00 | 56 | 1014.4 |
| 20260901221003 | 21 | 281 | 4.8 | 19.3 | 0.00 | 0.00 | 0.00 | 57 | 1014.4 |
| 20260901220503 | 21 | 269 | 4.8 | 19.3 | 0.00 | 0.00 | 0.00 | 57 | 1014.4 |
| 20260901220003 | 21 | 269 | 4.8 | 12.9 | 0.00 | 0.00 | 0.00 | 58 | 1014.4 |
| 20260901215503 | 21 | 275 | 4.8 | 16.1 | 0.00 | 0.00 | 0.00 | 58 | 1014.4 |
| 20260901215003 | 21 | 268 | 4.8 | 17.7 | 0.00 | 0.00 | 0.00 | 58 | 1014.4 |
| 20260901214503 | 21 | 272 | 6.4 | 17.7 | 0.00 | 0.00 | 0.00 | 57 | 1014.4 |
| 20260901214003 | 21 | 282 | 4.8 | 17.7 | 0.00 | 0.00 | 0.00 | 58 | 1014.4 |
| 20260901213524 | 21 | 309 | 3.2 | 12.9 | 0.00 | 0.00 | 0.00 | 58 | 1014.4 |
| 20260901213003 | 20 | 295 | 4.8 | 16.1 | 0.00 | 0.00 | 0.00 | 59 | 1014.4 |
| 20260901212503 | 20 | 266 | 4.8 | 16.1 | 0.00 | 0.00 | 0.00 | 59 | 1014.4 |
| 20260901212024 | 20 | 263 | 4.8 | 19.3 | 0.00 | 0.00 | 0.00 | 58 | 1014.4 |
| 20260901211503 | 20 | 264 | 4.8 | 19.3 | 0.00 | 0.00 | 0.00 | 59 | 1014.4 |
| 20260901211024 | 20 | 261 | 4.8 | 16.1 | 0.00 | 0.00 | 0.00 | 59 | 1014.4 |
| 20260901210503 | 20 | 256 | 4.8 | 16.1 | 0.00 | 0.00 | 0.00 | 58 | 1014.4 |
| 20260901210003 | 20 | 254 | 4.8 | 12.9 | 0.00 | 0.00 | 0.00 | 58 | 1014.4 |
| 20260901205524 | 20 | 257 | 3.2 | 11.3 | 0.00 | 0.00 | 0.00 | 58 | 1014.4 |
| 20260901205003 | 20 | 260 | 4.8 | 14.5 | 0.00 | 0.00 | 0.00 | 58 | 1014.4 |
| 20260901204503 | 20 | 264 | 4.8 | 14.5 | 0.00 | 0.00 | 0.00 | 58 | 1014.4 |
| 20260901204003 | 20 | 295 | 3.2 | 8.0 | 0.00 | 0.00 | 0.00 | 58 | 1014.4 |
| 20260901203503 | 20 | 260 | 3.2 | 8.0 | 0.00 | 0.00 | 0.00 | 59 | 1014.4 |
| 20260901203003 | 19 | 203 | 4.8 | 9.7 | 0.00 | 0.00 | 0.00 | 59 | 1014.4 |
| 20260901202503 | 19 | 235 | 4.8 | 16.1 | 0.00 | 0.00 | 0.00 | 59 | 1014.4 |
| 20260901202003 | 19 | 257 | 4.8 | 16.1 | 0.00 | 0.00 | 0.00 | 60 | 1014.4 |
| 20260901201503 | 19 | 254 | 3.2 | 11.3 | 0.00 | 0.00 | 0.00 | 59 | 1014.4 |
| 20260901201003 | 19 | 234 | 3.2 | 11.3 | 0.00 | 0.00 | 0.00 | 61 | 1014.4 |
| 20260901200503 | 19 | 246 | 4.8 | 11.3 | 0.00 | 0.00 | 0.00 | 61 | 1014.4 |
| 20260901200003 | 19 | 297 | 4.8 | 12.9 | 0.00 | 0.00 | 0.00 | 61 | 1014.4 |
| 20260901195503 | 18 | 295 | 3.2 | 12.9 | 0.00 | 0.00 | 0.00 | 63 | 1014.4 |
| 20260901195003 | 18 | 256 | 3.2 | 9.7 | 0.00 | 0.00 | 0.00 | 63 | 1014.4 |
| 20260901194503 | 18 | 251 | 3.2 | 12.9 | 0.00 | 0.00 | 0.00 | 63 | 1014.4 |
| 20260901194003 | 18 | 248 | 4.8 | 17.7 | 0.00 | 0.00 | 0.00 | 63 | 1014.4 |
| 20260901193503 | 18 | 267 | 3.2 | 17.7 | 0.00 | 0.00 | 0.00 | 64 | 1014.4 |
| 20260901193003 | 17 | 271 | 4.8 | 11.3 | 0.00 | 0.00 | 0.00 | 64 | 1014.4 |
| 20260901192503 | 17 | 248 | 4.8 | 12.9 | 0.00 | 0.00 | 0.00 | 65 | 1014.4 |
| 20260901192024 | 17 | 244 | 6.4 | 12.9 | 0.00 | 0.00 | 0.00 | 64 | 1014.4 |
| 20260901191503 | 17 | 241 | 6.4 | 12.9 | 0.00 | 0.00 | 0.00 | 65 | 1014.4 |
| 20260901191003 | 17 | 244 | 6.4 | 14.5 | 0.00 | 0.00 | 0.00 | 66 | 1014.4 |
| 20260901190503 | 17 | 261 | 4.8 | 14.5 | 0.00 | 0.00 | 0.00 | 67 | 1014.4 |
| 20260901190003 | 17 | 265 | 4.8 | 14.5 | 0.00 | 0.00 | 0.00 | 68 | 1014.4 |
| 20260901185503 | 17 | 253 | 4.8 | 14.5 | 0.00 | 0.00 | 0.00 | 67 | 1014.4 |
| 20260901185003 | 17 | 258 | 3.2 | 12.9 | 0.00 | 0.00 | 0.00 | 66 | 1014.4 |
| 20260901184503 | 17 | 268 | 3.2 | 11.3 | 0.00 | 0.00 | 0.00 | 67 | 1014.4 |
| 20260901184003 | 17 | 249 | 3.2 | 14.5 | 0.00 | 0.00 | 0.00 | 67 | 1014.4 |
| 20260901183503 | 17 | 243 | 4.8 | 14.5 | 0.00 | 0.00 | 0.00 | 66 | 1014.4 |
| 20260901183003 | 17 | 247 | 4.8 | 12.9 | 0.00 | 0.00 | 0.00 | 66 | 1014.4 |
| 20260901182503 | 17 | 245 | 4.8 | 12.9 | 0.00 | 0.00 | 0.00 | 66 | 1014.4 |
| 20260901182003 | 17 | 238 | 4.8 | 12.9 | 0.00 | 0.00 | 0.00 | 66 | 1014.4 |
| 20260901181503 | 17 | 232 | 4.8 | 14.5 | 0.00 | 0.00 | 0.00 | 66 | 1014.4 |
| 20260901181003 | 17 | 240 | 4.8 | 14.5 | 0.00 | 0.00 | 0.00 | 67 | 1014.4 |
| 20260901180503 | 17 | 250 | 4.8 | 16.1 | 0.00 | 0.00 | 0.00 | 67 | 1014.4 |
| 20260901180003 | 17 | 251 | 6.4 | 16.1 | 0.00 | 0.00 | 0.00 | 66 | 1014.4 |
| 20260901175524 | 17 | 244 | 4.8 | 14.5 | 0.00 | 0.00 | 0.00 | 66 | 1014.4 |
| 20260901175003 | 17 | 247 | 4.8 | 14.5 | 0.00 | 0.00 | 0.00 | 66 | 1014.4 |
| 20260901174503 | 17 | 230 | 6.4 | 14.5 | 0.00 | 0.00 | 0.00 | 66 | 1014.4 |
| 20260901174003 | 17 | 221 | 6.4 | 14.5 | 0.00 | 0.00 | 0.00 | 67 | 1014.4 |
| 20260901173524 | 16 | 235 | 4.8 | 14.5 | 0.00 | 0.00 | 0.00 | 67 | 1014.4 |
| 20260901173003 | 16 | 242 | 4.8 | 11.3 | 0.00 | 0.00 | 0.00 | 68 | 1014.4 |
| 20260901172503 | 16 | 249 | 4.8 | 11.3 | 0.00 | 0.00 | 0.00 | 69 | 1014.4 |
| 20260901172003 | 16 | 250 | 4.8 | 11.3 | 0.00 | 0.00 | 0.00 | 68 | 1014.4 |
| 20260901171503 | 16 | 255 | 4.8 | 12.9 | 0.00 | 0.00 | 0.00 | 67 | 1014.4 |
| 20260901171003 | 16 | 286 | 3.2 | 12.9 | 0.00 | 0.00 | 0.00 | 67 | 1014.4 |
| 20260901170524 | 16 | 307 | 3.2 | 12.9 | 0.00 | 0.00 | 0.00 | 67 | 1014.4 |
| 20260901170003 | 16 | 278 | 4.8 | 12.9 | 0.00 | 0.00 | 0.00 | 68 | 1014.4 |
| 20260901165503 | 16 | 259 | 4.8 | 11.3 | 0.00 | 0.00 | 0.00 | 70 | 1014.4 |
| 20260901165004 | 16 | 253 | 4.8 | 12.9 | 0.00 | 0.00 | 0.00 | 71 | 1014.4 |
| 20260901164504 | 16 | 252 | 4.8 | 14.5 | 0.00 | 0.00 | 0.00 | 71 | 1014.4 |
| 20260901164003 | 16 | 237 | 4.8 | 14.5 | 0.00 | 0.00 | 0.00 | 71 | 1014.4 |
| 20260901163503 | 16 | 225 | 6.4 | 14.5 | 0.00 | 0.00 | 0.00 | 72 | 1014.4 |
| 20260901163003 | 16 | 236 | 6.4 | 14.5 | 0.00 | 0.00 | 0.00 | 73 | 1014.4 |
| 20260901162503 | 15 | 240 | 6.4 | 14.5 | 0.00 | 0.00 | 0.00 | 73 | 1014.4 |
| 20260901162003 | 15 | 232 | 4.8 | 12.9 | 0.00 | 0.00 | 0.00 | 73 | 1014.4 |
| 20260901161503 | 15 | 248 | 4.8 | 12.9 | 0.00 | 0.00 | 0.00 | 73 | 1014.4 |
| 20260901161024 | 15 | 246 | 4.8 | 12.9 | 0.00 | 0.00 | 0.00 | 74 | 1014.4 |
| 20260901160503 | 15 | 238 | 4.8 | 14.5 | 0.00 | 0.00 | 0.00 | 74 | 1014.4 |
| 20260901160003 | 15 | 243 | 4.8 | 14.5 | 0.00 | 0.00 | 0.00 | 75 | 1014.4 |
| 20260901155524 | 15 | 244 | 3.2 | 8.0 | 0.00 | 0.00 | 0.00 | 76 | 1014.4 |
| 20260901155003 | 15 | 239 | 3.2 | 9.7 | 0.00 | 0.00 | 0.00 | 76 | 1014.4 |
| 20260901154524 | 15 | 242 | 4.8 | 14.5 | 0.00 | 0.00 | 0.00 | 76 | 1014.4 |
| 20260901154003 | 15 | 250 | 6.4 | 14.5 | 0.00 | 0.00 | 0.00 | 76 | 1014.4 |
| 20260901153503 | 15 | 251 | 4.8 | 14.5 | 0.00 | 0.00 | 0.00 | 76 | 1014.4 |
| 20260901153003 | 15 | 253 | 4.8 | 12.9 | 0.00 | 0.00 | 0.00 | 77 | 1014.4 |
| 20260901152503 | 15 | 248 | 3.2 | 12.9 | 0.00 | 0.00 | 0.00 | 78 | 1014.4 |
| 20260901152003 | 15 | 224 | 3.2 | 12.9 | 0.00 | 0.00 | 0.00 | 78 | 1014.4 |
| 20260901151503 | 15 | 218 | 3.2 | 9.7 | 0.00 | 0.00 | 0.00 | 79 | 1014.4 |
| 20260901151003 | 14 | 240 | 3.2 | 11.3 | 0.00 | 0.00 | 0.00 | 79 | 1014.4 |
| 20260901150503 | 14 | 247 | 1.6 | 11.3 | 0.00 | 0.00 | 0.00 | 79 | 1014.4 |
| 20260901150003 | 14 | 240 | 1.6 | 8.0 | 0.00 | 0.00 | 0.00 | 79 | 1014.4 |
| 20260901145503 | 14 | 230 | 3.2 | 11.3 | 0.00 | 0.00 | 0.00 | 79 | 1014.4 |
| 20260901145003 | 14 | 219 | 3.2 | 11.3 | 0.00 | 0.00 | 0.00 | 79 | 1014.4 |
| 20260901144503 | 14 | 208 | 3.2 | 8.0 | 0.00 | 0.00 | 0.00 | 79 | 1014.4 |
| 20260901144003 | 14 | 196 | 3.2 | 8.0 | 0.00 | 0.00 | 0.00 | 79 | 1014.4 |
| 20260901143503 | 14 | 195 | 4.8 | 9.7 | 0.00 | 0.00 | 0.00 | 79 | 1014.4 |
| 20260901143003 | 14 | 193 | 4.8 | 9.7 | 0.00 | 0.00 | 0.00 | 79 | 1014.4 |
| 20260901142503 | 14 | 186 | 6.4 | 9.7 | 0.00 | 0.00 | 0.00 | 79 | 1014.4 |
| 20260901142003 | 14 | 188 | 4.8 | 14.5 | 0.00 | 0.00 | 0.00 | 79 | 1014.4 |
| 20260901141503 | 13 | 192 | 4.8 | 14.5 | 0.00 | 0.00 | 0.00 | 79 | 1014.4 |
| 20260901141003 | 13 | 191 | 4.8 | 12.9 | 0.00 | 0.00 | 0.00 | 79 | 1014.4 |
| 20260901140503 | 13 | 196 | 4.8 | 9.7 | 0.00 | 0.00 | 0.00 | 79 | 1014.4 |
| 20260901140024 | 13 | 201 | 3.2 | 9.7 | 0.00 | 0.00 | 0.00 | 80 | 1014.4 |
| 20260901135503 | 13 | 191 | 4.8 | 11.3 | 0.00 | 0.00 | 0.00 | 80 | 1014.4 |
| 20260901135003 | 13 | 188 | 6.4 | 12.9 | 0.00 | 0.00 | 0.00 | 80 | 1014.4 |
| 20260901134524 | 13 | 192 | 4.8 | 12.9 | 0.00 | 0.00 | 0.00 | 80 | 1014.4 |
| 20260901134024 | 13 | 193 | 4.8 | 9.7 | 0.00 | 0.00 | 0.00 | 80 | 1014.4 |
| 20260901133525 | 13 | 192 | 3.2 | 11.3 | 0.00 | 0.00 | 0.00 | 80 | 1014.4 |
| 20260901133003 | 13 | 191 | 3.2 | 11.3 | 0.00 | 0.00 | 0.00 | 80 | 1014.4 |
| 20260901132503 | 13 | 193 | 3.2 | 9.7 | 0.00 | 0.00 | 0.00 | 80 | 1014.4 |
| 20260901132003 | 13 | 180 | 3.2 | 9.7 | 0.00 | 0.00 | 0.00 | 80 | 1014.4 |
| 20260901131503 | 13 | 173 | 3.2 | 9.7 | 0.00 | 0.00 | 0.00 | 80 | 1014.4 |
| 20260901131003 | 13 | 189 | 3.2 | 11.3 | 0.00 | 0.00 | 0.00 | 80 | 1014.4 |
| 20260901130503 | 13 | 188 | 3.2 | 11.3 | 0.00 | 0.00 | 0.00 | 80 | 1014.4 |
| 20260901130024 | 13 | 187 | 3.2 | 8.0 | 0.00 | 0.00 | 0.00 | 80 | 1014.4 |
| 20260901125524 | 13 | 186 | 4.8 | 11.3 | 0.00 | 0.00 | 0.00 | 80 | 1014.4 |
| 20260901125003 | 13 | 189 | 3.2 | 9.7 | 0.00 | 0.00 | 0.00 | 80 | 1014.4 |
| 20260901124504 | 13 | 190 | 3.2 | 8.0 | 0.00 | 0.00 | 0.00 | 80 | 1014.4 |
| 20260901124003 | 13 | 196 | 3.2 | 11.3 | 0.00 | 0.00 | 0.00 | 80 | 1014.4 |
| 20260901123503 | 13 | 203 | 3.2 | 11.3 | 0.00 | 0.00 | 0.00 | 80 | 1014.4 |